Regional Weather Roundup
Issued by NWS Charleston, SC

Current Version | Previous Version | Graphics & Text | Print | Product List | Glossary On
Versions: 1 2 3 4 5 6 7 8 9 10 11 12 13 14 15 16 17 18 19 20 21 22 23 24 25 26 27 28 29 30 31 32 33 34 35 36 37 38 39 40 41 42 43 44 45 46 47 48 49 50
000 ASUS42 KCHS 171927 RWRCHS REGIONAL WEATHER ROUNDUP NATIONAL WEATHER SERVICE CHARLESTON SC 200 PM EST TUE JAN 17 2017 NOTE: "FAIR" INDICATES FEW OR NO CLOUDS BELOW 12,000 FEET WITH NO SIGNIFICANT WEATHER AND/OR OBSTRUCTIONS TO VISIBILITY. NOT ALL STATIONS ARE QUALITY CONTROLLED. USE DATA WITH CAUTION... ESPECIALLY DEWPOINT OBSERVATIONS. SCZ027-030-031-034>040-042>050-172000- ...SOUTHEAST SOUTH CAROLINA... CITY SKY/WX TMP DP RH WIND PRES REMARKS N CHARLESTON MOSUNNY 76 59 55 W10 30.18F WATERFRONT PRK N/A 73 62 68 VRB2 30.19F MOUNT PLEASANT FAIR 75 61 60 SW13 30.18F JOHNS ISLAND FAIR 75 61 60 SW10 30.19F PINOPOLIS N/A 55 55 100 NE5 30.13F MONCKS CORNER FAIR 73 57 56 SW8 30.18F SUMMERVILLE FAIR 73 61 64 SW5 30.19F BEAUFORT MCAS MOSUNNY 75 59 57 SW10 30.20F BEAUFORT ARPT NOT AVBL HILTON HEAD IS MOSUNNY 73 61 64 SE5 30.21F WALTERBORO CLEAR 73 63 68 SW9 30.19F ALLENDALE FAIR 73 57 56 VRB6 30.17F ...SOUTHERN MIDLANDS AND PEE DEE... CITY SKY/WX TMP DP RH WIND PRES REMARKS GEORGETOWN FAIR 72 59 64 W6 30.19F KINGSTREE FAIR 66 57 72 SW8 30.19F ORANGEBURG SUNNY 72 59 63 SW10 30.18F BARNWELL FAIR 75 59 57 VRB7G14 30.17F AIKEN FAIR 72 54 53 SW10 30.19F MANNING FAIR 63 59 88 CALM 30.19F COLUMBIA PTSUNNY 74 56 53 SW12 30.15F SUMTER MOSUNNY 71 57 61 S9 30.15F FLORENCE MOSUNNY 65 58 78 S10 30.18F MYRTLE BEACH NOT AVBL N MYRTLE BEACH SUNNY 70 59 68 W7 30.18F $$ GAZ063-065-086>088-099>101-113>116-118-119-134>141-150-172000- ...SOUTHEAST GEORGIA... CITY SKY/WX TMP DP RH WIND PRES REMARKS SAVANNAH ARPT MOSUNNY 75 56 51 SW8 30.20F HUNTER AAF SUNNY 76 57 52 S8 30.17F FORT STEWART SUNNY 75 59 57 SW6 30.18F STATESBORO MOSUNNY 77 60 54 SW9 30.19F SYLVANIA CLEAR N/A N/A N/A W3 30.19F CLAXTON FAIR 75 72 88 S5 30.19F ...CSRA...CENTRAL AND FAR SOUTHEAST GEORGIA... CITY SKY/WX TMP DP RH WIND PRES REMARKS THOMSON MOSUNNY 76 59 54 SW8G17 30.20F AUGUSTA-BUSH SUNNY 78 55 44 SW12 30.16F AUGUSTA-DANIEL SUNNY 75 52 44 SW13G21 30.17F SWAINSBORO MOCLDY 77 55 47 SW8 30.18F VIDALIA MOSUNNY 77 61 57 SW8 30.19F EASTMAN FAIR 78 42 28 SW6 30.19F HAZLEHURST FAIR 77 60 55 SW7 30.18F ALMA MOSUNNY 76 58 53 W9 30.20F WAYCROSS MOSUNNY 79 62 55 SW7 30.20F JESUP FAIR 77 55 47 W6 30.20F BAXLEY PTSUNNY 77 63 61 SW5 30.19F BRUNSWICK SUNNY 77 61 57 S9 30.21F SAINT SIMONS SUNNY 73 61 65 SE7 30.21F $$ SCZ027-028-034-036>038-045-046-048>050-GAZ119-141-172000- ...LAKE AND SUPPLEMENTAL COASTAL OBSERVATIONS... STATION/POSITION TIME TEMP WIND PRES WAVE SWELL AIR SEA DIR/SP/G HT/PER HT/PER/DIR (UTC) (F) (DEG/KT/KT) (MB) (FT/S) (FT/S/D) WINYAH BAY 1830 71 270/ 5 1023.0S LAKE MURRAY 1920 67 210/ 3/ 5 1020.3F ACE BASIN NERRS 1845 72 210/ 2 1023.0F FORT PULASKI 1900 67 56 200/ 5/ 7 1022.9 SAPELO ISLAND 1900 72 240/ 6 1023.0 $$ ANZ835-935-AMZ111-154-330-350-352-354-370-450-454-472-172000- ...C-MAN AND BUOY OBSERVATIONS... STATION/POSITION TIME TEMP WIND PRES WAVE SWELL AIR SEA DIR/SP/G HT/PER HT/PER/DIR (UTC) (F) (DEG/KT/KT) (MB) (FT/S) (FT/S/D) BUOY 41004 1850 70 71 260/ 6/ 6 1022.5F 2/ 8 2/120/ 8 BUOY 41008 1850 60 61 20/ 2/ 4 1022.9F 2/11 2/ 90/11 FOLLY BEACH CMAN 1900 61 200/ 6/ 7 1023.2F CAPERS NEARSHORE 1908 57 55 210/ 4/ 6 1022.3F FRIPP NEARSHORE 1908 60 57 130/ 2/ 4 1022.5F STATION/POSITION TIME TEMP WIND PRES WAVE SWELL AIR SEA DIR/SP/G HT/PER HT/PER/DIR (UTC) (F) (DEG/KT/KT) (MB) (FT/S) (FT/S/D) 5E ST. MARYS GA 1900 62 N/A 2/11 FRYING PAN BUOY 1910 71 72 240/ 12/ 14 1022.3 BUOY 41025 1850 61 73 300/ 2/ 2 1022.4F 2/ 9 2/100/ 9 CAPE LOOKOUT NC 1900 62 60/ 3/ 4 1021.6F BUOY 41002 1850 72 72 210/ 12/ 14 1024.0F 3/10 2/ 60/10 BUOY 41010 NOT AVBL ST AUGUSTINE FL 1900 67 63 110/ 5/ 6 1023.8F $$

USA.gov is the U.S. government's official web portal to all federal, state and local government web resources and services.